This demonstration page uses our WeatherBlox Daily Observations layout. Learn more.

Left ArrowRight Arrow

Hourly Observations for February 19, 2015

Temp ( °F °C ) Dew Point ( °F °C ) Humidity (%) Winds ( mph kmh ) Pressure ( in mb ) Visibility ( mi km ) Precip ( " mm )
12:25 am 00:25 Partly Cloudy 49 9.4 46 7.8 90 90 Calm 30.15 1021 10 16 0.00 0.00
12:30 am 00:30 Mostly Cloudy 48 9 46 8 94 94 Calm 30.15 1021 10 16 0.00 0.00
12:37 am 00:37 Partly Cloudy 49 9.4 45 7.2 86 86 Calm 30.15 1021 10 16 0.00 0.00
12:48 am 00:48 Mostly Cloudy 48 9 46 8 94 94 Calm 30.15 1021 10 16 0.00 0.00
12:53 am 00:53 Mostly Cloudy 48 8.9 46 7.8 93 93 Calm 30.15 1021 10 16 0.00 0.00
1:53 am 01:53 Cloudy 51 10.6 48 8.9 89 89 Calm 30.14 1021 10 16 0.00 0.00
2:12 am 02:12 Cloudy 52 11 48 9 88 88 Calm 30.15 1021 10 16 0.00 0.00
2:53 am 02:53 Cloudy 50 10 47 8.3 89 89 N 3 6 30.13 1020 10 16 0.00 0.00
3:32 am 03:32 Cloudy with Mist and Fog 52 11 50 10 94 94 Calm 30.12 1020 2 3 0.00 0.00
3:38 am 03:38 Mostly Cloudy with Mist and Fog 50 10 48 9 94 94 Calm 30.12 1020 1 1 0.00 0.00
3:53 am 03:53 Mostly Cloudy with Fog 50 10 49 9.4 96 96 Calm 30.12 1020 0 0 0.00 0.00
4:53 am 04:53 Mostly Cloudy with Fog 51 10.6 50 10 96 96 Calm 30.13 1020 0 0 0.00 0.00
5:53 am 05:53 Mostly Cloudy with Fog 51 10.6 50 10 96 96 Calm 30.13 1020 0 0 0.00 0.00
6:53 am 06:53 Mostly Cloudy with Fog 50 10 50 10 100 100 Calm 30.14 1021 0 0 0.00 0.00
7:53 am 07:53 Mostly Cloudy with Fog 51 10.6 50 10 96 96 Calm 30.16 1021 1 2 0.00 0.00
8:53 am 08:53 Mostly Cloudy with Fog 50 10 50 10 100 100 WNW 3 6 30.17 1022 1 2 0.00 0.00
9:53 am 09:53 Mostly Cloudy with Fog 51 10.6 50 10 96 96 Calm 30.15 1021 0 0 0.00 0.00
10:40 am 10:40 Cloudy with Fog 52 11 52 11 100 100 Calm 30.15 1021 1 1 0.00 0.00
10:49 am 10:49 Cloudy with Mist and Fog 52 11 52 11 100 100 Calm 30.15 1021 2 2 0.00 0.00
10:53 am 10:53 Cloudy with Mist and Fog 52 11 52 11 100 100 SSW 3 6 30.15 1021 2 2 0.00 0.00
10:55 am 10:55 Cloudy with Mist and Fog 52 11.1 51 10.6 97 97 Calm 30.15 1021 2 2 0.00 0.00
11:07 am 11:07 Partly Cloudy with Mist and Fog 53 11.7 51 10.6 93 93 S 5 7 30.15 1021 4 6 0.00 0.00
11:53 am 11:53 Sunny 58 14.4 53 11.7 84 84 Calm 30.12 1020 9 14 0.00 0.00
12:53 pm 12:53 Sunny 63 17.2 52 11.1 68 68 Calm 30.08 1019 10 16 0.00 0.00
1:53 pm 13:53 Sunny 66 18.9 52 11.1 61 61 S 3 6 30.04 1017 10 16 0.00 0.00
2:53 pm 14:53 Sunny 68 20 49 9.4 51 51 VRB 3 6 30.03 1017 10 16 0.00 0.00
3:53 pm 15:53 Sunny 68 20 48 8.9 49 49 SE 5 7 30.02 1017 10 16 0.00 0.00
4:53 pm 16:53 Sunny 68 20 52 11.1 57 57 Calm 30.01 1016 10 16 0.00 0.00
5:53 pm 17:53 Clear 64 17.8 51 10.6 63 63 SE 6 9 30.03 1017 10 16 0.00 0.00
6:53 pm 18:53 Clear 59 15 50 10 72 72 Calm 30.05 1018 10 16 0.00 0.00
7:53 pm 19:53 Clear 56 13.3 50 10 81 81 Calm 30.05 1018 10 16 0.00 0.00
8:53 pm 20:53 Clear 52 11.1 48 8.9 86 86 NNE 6 9 30.06 1018 10 16 0.00 0.00
9:53 pm 21:53 Clear with Mist and Fog 51 10.6 47 8.3 86 86 Calm 30.07 1018 5 8 0.00 0.00
9:59 pm 21:59 Clear with Mist and Fog 52 11 48 9 88 88 Calm 30.06 1018 2 3 0.00 0.00
10:06 pm 22:06 Clear with Mist and Fog 51 10.6 48 8.9 89 89 Calm 30.09 1019 1 2 0.00 0.00
10:10 pm 22:10 Clear with Mist and Fog 52 11 48 9 88 88 Calm 30.09 1019 2 3 0.00 0.00
10:17 pm 22:17 Clear with Mist and Fog 51 10.6 49 9.4 92 92 Calm 30.09 1019 4 6 0.00 0.00
10:53 pm 22:53 Clear 49 9.4 46 7.8 90 90 Calm 30.08 1019 8 13 0.00 0.00
11:29 pm 23:29 Partly Cloudy 47 8.3 45 7.2 93 93 ENE 3 6 30.09 1019 8 13 0.00 0.00
11:40 pm 23:40 Mostly Cloudy 48 9 46 8 94 94 N 3 6 30.09 1019 8 13 0.00 0.00
11:53 pm 23:53 Cloudy 50 10 48 8.9 93 93 Calm 30.08 1019 9 14 0.00 0.00
11:59 pm 23:59 Cloudy with Mist and Fog 50 10 47 8.3 89 89 Calm 30.09 1019 2 2 0.00 0.00

Powered by AerisWeather